FW4263 Weather Reports


time (UTC)temp
C
wind
direction
speed
KPH
gust
KPH
rain 1hr
cm
rain 24hr
cm
rain mn
cm
humidity
%
barometer
mb
20260504235000 23 202 4.8 9.7 0.00 0.00 0.00 50 1009.3
20260504234459 23 266 4.8 6.4 0.00 0.00 0.00 50 1009.3
20260504234001 23 202 4.8 8.0 0.00 0.00 0.00 50 1009.3
20260504233500 23 242 4.8 8.0 0.00 0.00 0.00 50 1009.4
20260504233000 24 225 4.8 8.0 0.00 0.00 0.00 50 1009.4
20260504232459 24 255 4.8 14.5 0.00 0.00 0.00 50 1009.3
20260504231459 23 277 4.8 6.4 0.00 0.00 0.00 50 1009.4
20260504230959 23 216 4.8 11.3 0.00 0.00 0.00 50 1009.5
20260504230005 24 229 3.2 11.3 0.00 0.00 0.00 51 1009.4
20260504225459 24 196 4.8 11.3 0.00 0.00 0.00 50 1009.4
20260504225000 24 239 4.8 8.0 0.00 0.00 0.00 50 1009.4
20260504224459 25 230 4.8 14.5 0.00 0.00 0.00 49 1009.3
20260504223959 25 251 4.8 8.0 0.00 0.00 0.00 49 1009.4
20260504223459 25 238 3.2 9.7 0.00 0.00 0.00 49 1009.3
20260504222959 25 234 3.2 9.7 0.00 0.00 0.00 49 1009.4
20260504222502 25 219 3.2 6.4 0.00 0.00 0.00 49 1009.4
20260504222000 25 269 3.2 9.7 0.00 0.00 0.00 50 1009.4
20260504221500 25 221 3.2 12.9 0.00 0.00 0.00 49 1009.5
20260504221000 25 298 4.8 12.9 0.00 0.00 0.00 48 1009.4
20260504220500 25 223 6.4 12.9 0.00 0.00 0.00 46 1009.4
20260504220003 25 280 4.8 11.3 0.00 0.00 0.00 45 1009.5
20260504215459 25 209 6.4 11.3 0.00 0.00 0.00 47 1009.4
20260504214959 25 228 6.4 16.1 0.00 0.00 0.00 48 1009.4
20260504214000 25 273 4.8 11.3 0.00 0.00 0.00 46 1009.5
20260504213459 25 217 6.4 12.9 0.00 0.00 0.00 47 1009.4
20260504212500 25 208 6.4 12.9 0.00 0.00 0.00 47 1009.5
20260504211959 25 214 6.4 11.3 0.00 0.00 0.00 45 1009.5
20260504211500 25 190 6.4 11.3 0.00 0.00 0.00 43 1009.6
20260504211000 25 265 6.4 11.3 0.00 0.00 0.00 42 1009.6
20260504210459 25 220 4.8 12.9 0.00 0.00 0.00 44 1009.8
20260504210002 25 260 6.4 12.9 0.00 0.00 0.00 46 1009.7
20260504205502 25 263 6.4 11.3 0.00 0.00 0.00 45 1009.6
20260504204959 25 237 6.4 11.3 0.00 0.00 0.00 44 1009.8
20260504204500 26 225 4.8 9.7 0.00 0.00 0.00 44 1009.8
20260504203459 26 275 4.8 11.3 0.00 0.00 0.00 46 1010.0
20260504202001 26 272 4.8 14.5 0.00 0.00 0.00 46 1010.3
20260504201459 26 202 4.8 12.9 0.00 0.00 0.00 48 1010.2
20260504200958 26 212 4.8 12.9 0.00 0.00 0.00 46 1010.3
20260504200001 26 275 4.8 11.3 0.00 0.00 0.00 47 1010.4
20260504195458 25 227 6.4 9.7 0.00 0.00 0.00 46 1010.4
20260504195000 25 300 6.4 12.9 0.00 0.00 0.00 46 1010.7
20260504194501 26 226 4.8 12.9 0.00 0.00 0.00 45 1010.7
20260504193959 26 196 4.8 11.3 0.00 0.00 0.00 46 1010.8
20260504193458 26 264 6.4 12.9 0.00 0.00 0.00 48 1010.8
20260504192958 25 292 6.4 12.9 0.00 0.00 0.00 48 1011.0
20260504192459 25 212 6.4 16.1 0.00 0.00 0.00 45 1011.0
20260504192000 25 253 4.8 16.1 0.00 0.00 0.00 48 1011.1
20260504191458 25 198 6.4 9.7 0.00 0.00 0.00 47 1011.2
20260504190459 25 211 6.4 14.5 0.00 0.00 0.00 46 1011.3
20260504190003 25 215 6.4 12.9 0.00 0.00 0.00 47 1011.2
20260504185459 25 261 6.4 11.3 0.00 0.00 0.00 49 1011.3
20260504185000 25 218 6.4 12.9 0.00 0.00 0.00 46 1011.3
20260504184459 25 219 6.4 12.9 0.00 0.00 0.00 49 1011.3
20260504183958 25 239 6.4 12.9 0.00 0.00 0.00 47 1011.3
20260504183500 25 216 6.4 12.9 0.00 0.00 0.00 47 1011.4
20260504183000 25 242 6.4 11.3 0.00 0.00 0.00 48 1011.4
20260504182500 25 211 4.8 14.5 0.00 0.00 0.00 50 1011.5
20260504182000 25 196 4.8 14.5 0.00 0.00 0.00 52 1011.5
20260504181501 25 265 4.8 9.7 0.00 0.00 0.00 47 1011.6
20260504181000 25 211 4.8 8.0 0.00 0.00 0.00 49 1011.6
20260504180001 25 215 4.8 11.3 0.00 0.00 0.00 49 1011.7
20260504175000 25 346 4.8 19.3 0.00 0.00 0.00 50 1011.7
20260504174458 25 277 4.8 9.7 0.00 0.00 0.00 56 1011.9
20260504173958 24 247 6.4 12.9 0.00 0.00 0.00 53 1012.1
20260504173500 25 168 4.8 12.9 0.00 0.00 0.00 51 1012.1
20260504173000 25 219 3.2 9.7 0.00 0.00 0.00 55 1012.0
20260504172458 24 294 4.8 9.7 0.00 0.00 0.00 53 1012.2
20260504172000 24 278 4.8 11.3 0.00 0.00 0.00 56 1012.2
20260504171458 24 281 4.8 11.3 0.00 0.00 0.00 55 1012.4
20260504170958 24 220 4.8 11.3 0.00 0.00 0.00 56 1012.5
20260504170458 24 263 6.4 12.9 0.00 0.00 0.00 55 1012.6
20260504140459 19 259 3.2 4.8 0.00 0.00 0.00 72 1013.7
20260504130458 17 278 1.6 6.4 0.00 0.00 0.00 78 1013.6
20260504110459 13 235 0.0 3.2 0.00 0.00 0.00 83 1013.0
20260504100458 14 236 0.0 0.0 0.00 0.00 0.00 80 1013.0
20260504081958 16 236 0.0 3.2 0.00 0.00 0.00 72 1013.3
20260504081458 16 236 0.0 1.6 0.00 0.00 0.00 72 1013.4
20260504080958 16 236 0.0 3.2 0.00 0.00 0.00 72 1013.3
20260504080458 16 236 0.0 1.6 0.00 0.00 0.00 72 1013.3
20260504050500 13 236 0.0 0.0 0.00 0.00 0.00 73 1014.8
20260504050004 14 236 0.0 0.0 0.00 0.00 0.00 75 1014.7
20260504045501 13 236 0.0 0.0 0.00 0.00 0.00 73 1014.8
20260504045000 13 236 0.0 0.0 0.00 0.00 0.00 74 1014.8
20260504044501 14 236 0.0 0.0 0.00 0.00 0.00 73 1014.7
20260504044000 14 236 0.0 0.0 0.00 0.00 0.00 73 1014.8
20260504043500 13 236 0.0 0.0 0.00 0.00 0.00 73 1014.8
20260504043001 13 236 0.0 0.0 0.00 0.00 0.00 73 1014.8
20260504042500 13 236 0.0 0.0 0.00 0.00 0.00 73 1014.8
20260504042000 14 236 0.0 0.0 0.00 0.00 0.00 75 1014.9
20260504041500 13 236 0.0 0.0 0.00 0.00 0.00 74 1014.9
20260504040959 13 236 0.0 0.0 0.00 0.00 0.00 74 1014.8
20260504040501 13 236 0.0 0.0 0.00 0.00 0.00 73 1014.9
20260504040004 13 236 0.0 0.0 0.00 0.00 0.00 74 1014.8
20260504035501 13 236 0.0 3.2 0.00 0.00 0.00 74 1014.9
20260504035001 13 236 0.0 3.2 0.00 0.00 0.00 75 1014.9
20260504034459 14 236 0.0 1.6 0.00 0.00 0.00 74 1014.9
20260504034001 14 236 0.0 1.6 0.00 0.00 0.00 75 1014.8
20260504033000 14 236 0.0 1.6 0.00 0.00 0.00 74 1015.1
20260504032001 14 236 0.0 1.6 0.00 0.00 0.00 73 1015.2
20260504031500 14 236 0.0 1.6 0.00 0.00 0.00 73 1015.2
20260504030459 14 236 0.0 1.6 0.00 0.00 0.00 73 1015.3
20260504030002 14 236 0.0 0.0 0.00 0.00 0.00 74 1015.3
20260504025459 14 236 0.0 0.0 0.00 0.00 0.00 73 1015.3
20260504024500 15 236 0.0 1.6 0.00 0.00 0.00 72 1015.3
20260504024001 15 236 0.0 1.6 0.00 0.00 0.00 73 1015.2
20260504023501 15 236 0.0 1.6 0.00 0.00 0.00 73 1015.3
20260504022503 15 236 0.0 0.0 0.00 0.00 0.00 71 1015.3
20260504022001 15 236 0.0 1.6 0.00 0.00 0.00 71 1015.2
20260504021501 15 236 0.0 1.6 0.00 0.00 0.00 70 1015.3
20260504020500 15 236 0.0 1.6 0.00 0.00 0.00 69 1015.2
20260504020006 15 236 0.0 1.6 0.00 0.00 0.00 67 1015.2
20260504015501 15 236 0.0 1.6 0.00 0.00 0.00 69 1015.0
20260504015002 16 236 0.0 0.0 0.00 0.00 0.00 69 1015.0
20260504014503 16 236 0.0 1.6 0.00 0.00 0.00 67 1015.0
20260504014004 16 236 0.0 1.6 0.00 0.00 0.00 66 1014.9
20260504013502 16 236 0.0 1.6 0.00 0.00 0.00 66 1014.9
20260504013003 16 236 0.0 1.6 0.00 0.00 0.00 66 1014.9
20260504012502 17 236 0.0 1.6 0.00 0.00 0.00 63 1014.9
20260504012001 17 236 0.0 1.6 0.00 0.00 0.00 64 1014.9
20260504011001 17 236 0.0 1.6 0.00 0.00 0.00 62 1014.8
20260504010502 17 236 0.0 1.6 0.00 0.00 0.00 61 1014.8
20260504005500 18 236 0.0 0.0 0.00 0.00 0.00 58 1014.8
20260504004500 19 236 0.0 0.0 0.00 0.00 0.00 55 1014.8
20260504004000 19 236 0.0 0.0 0.00 0.00 0.00 53 1014.9
20260504002959 20 236 0.0 0.0 0.00 0.00 0.00 52 1015.0
20260504002459 20 236 0.0 0.0 0.00 0.00 0.00 53 1015.0
20260504002001 20 236 0.0 0.0 0.00 0.00 0.00 52 1014.9
20260504001459 20 236 0.0 3.2 0.00 0.00 0.00 50 1014.9
20260504000959 20 236 0.0 3.2 0.00 0.00 0.00 50 1014.9
20260504000500 21 236 0.0 1.6 0.00 0.00 0.00 49 1014.9
20260504000001 21 236 0.0 1.6 0.00 0.00 0.00 50 1015.0
20260503235459 21 236 0.0 1.6 0.00 0.00 0.00 47 1015.1